Preview of NWS' New Version of Forecast
This preview is not operational and should not be used for support decisions.

Regional Weather Roundup (RWR)

Issued by National Weather Service (NWS)

                            
000
ASUS42 KTBW 211317
RWRFL 
FLORIDA REGIONAL WEATHER ROUNDUP
NATIONAL WEATHER SERVICE TAMPA BAY RUSKIN FL
900 AM EDT SUN JUL 21 2019

NOTE: "FAIR" INDICATES FEW OR NO CLOUDS BELOW 12,000 FEET WITH NO
SIGNIFICANT WEATHER AND/OR OBSTRUCTIONS TO VISIBILITY.

FLZ001>010-012>015-112-114-115-211400-
PANHANDLE FLORIDA
  
CITY           SKY/WX    TMP DP  RH WIND       PRES   REMARKS
PENSACOLA      CLOUDY    79  77  94 NE6       30.05S                  
PENSACOLA NAS  PTSUNNY   80  75  84 NE3       30.05S                  
MILTON NAS     PTSUNNY   76  75  97 CALM        N/A                   
CRESTVIEW      FAIR      78  72  81 CALM      30.08F                  
DUKE FIELD     FAIR      76  73  88 CALM      30.07R                  
VALPARAISO     FAIR      80  73  80 NE3       30.06R                  
MARY ESTHER    MOSUNNY   79  75  85 CALM      30.05S                  
TRI COUNTY     FAIR      79  74  84 CALM      30.09S                  
PANAMA CITY    FAIR      78  72  81 E6        30.07R                  
TYNDALL AFB    FAIR      82  73  75 E6        30.07R                  
APALACHICOLA   FAIR      76  73  91 CALM      30.06S                  

STATION/POSITION SKY/WX   TEMP    WIND        PRES    WAVE   SWELL
                          AIR SEA DIR/SP/G            HT/PER HT/PER
                          (F)     (DEG/KT/KT) (MB)    (FT/S) (FT/S)
30.1N   87.6W              83 86   CALM  /  2 1017.4S   1/ 4
29.2N   88.2W              81 84  330/ 10/ 12 1017.1F   2/ 5   2/ 5
28.8N   86.0W                 86  200/ 14/ 17 1017.3R   1/ 4
PANAMA CITY BEAC           79 85   50/  5/  6 1018.4S
TOWER C                    82     130/  2/  2 1018.2R
28.5N   84.5W              84     110/  8/ 10 1017.9F   2/ 4   2/ 4

$$
FLZ011-016>038-118-127-128-134-139-239-211400-
NORTH FLORIDA
  
CITY           SKY/WX    TMP DP  RH WIND       PRES   REMARKS
MARIANNA       FAIR      78  75  90 S3        30.08R                  
TALLAHASSEE    FAIR      79  74  84 E6        30.08R                  
PERRY          FAIR      79  76  90 CALM      30.10S                  
LIVE OAK       SUNNY     79  75  89 CALM      30.09S                  
CROSS CITY     FAIR      79  74  84 E3        30.08S                  
LAKE CITY      FAIR      77  72  83 CALM      30.10S                  
GAINESVILLE    FAIR      79  73  82 SE5       30.11R                  
WILLISTON      FAIR      78  75  91 S5        30.08S                  
PALATKA        FAIR      82  75  78 S6        30.09S                  
MAYPORT NAS    FAIR      82  72  71 W3        30.08S                  
JACKSONVILLE   FAIR      79  73  82 CALM      30.08S                  
JAX NAS        FAIR      82  71  69 S3        30.09R                  
JAX CECIL      SUNNY     82  73  74 CALM      30.08S                  
FERNANDINA BEA FAIR      80  75  85 SW8       30.09R                  
ST AUGUSTINE   FAIR      83  75  77 S7        30.09S                  
PALM COAST     SUNNY     82  75  78 S5        30.09S                  

STATION/POSITION SKY/WX   TEMP    WIND        PRES    WAVE   SWELL
                          AIR SEA DIR/SP/G            HT/PER HT/PER
                          (F)     (DEG/KT/KT) (MB)    (FT/S) (FT/S)
SHELL POINT      NOT AVBL
KEATON BEACH               81      90/  4/  4 1018.9R
CEDAR KEY                  81     140/ 10/ 11 1018.1F
FERNANDINA                 84 86  220/  3/  6 1019.4S
30.7N   81.3W                 82                N/A     2/ 8
MAYPORT                    80 84  210/  4/  5 1019.1R
31.4N   80.9W              82 83  230/ 10/ 12 1018.3R   2/ 8   2/ 8
ST AUGUSTINE               79 76  170/  8/  9 1018.9R

$$
FLZ040-043>046-052-053-057-058-063-144-211400-
INTERIOR CENTRAL FLORIDA
  
CITY           SKY/WX    TMP DP  RH WIND       PRES   REMARKS
OCALA          FAIR      81  76  84 SE6       30.09S                  
LEESBURG       FAIR      83  76  79 VRB5      30.10R                  
SANFORD        FAIR      82  76  81 E3        30.09R                  
ORLANDO EXEC   FAIR      83  76  79 E6        30.09S                  
ORLANDO INTL   FAIR      81  75  82 E3        30.09S                  
KISSIMMEE      FAIR      83  77  82 SE6       30.10R                  
WINTER HAVEN   FAIR      82  76  81 E5        30.10R                  
LAKELAND       SUNNY     81  75  83 SE5       30.09R                  
BARTOW         MOSUNNY   81  77  89 E5        30.08R                  
SEBRING        FAIR      81  76  87 E6        30.09R                  
OKEECHOBEE     FAIR      81  77  89 E3        30.08R                  

$$
FLZ041-047-054-059-064-141-147-211400-
EAST CENTRAL FLORIDA
  
CITY           SKY/WX    TMP DP  RH WIND       PRES   REMARKS
ORMOND BEACH   SUNNY     82  81  94 CALM      30.09S HX  95           
DAYTONA BEACH  FAIR      82  79  90 CALM      30.09S                  
DELAND         FAIR      81  75  83 S6        30.09S                  
NEW SMYRNA BEA MOSUNNY   84  77  79 CALM      30.10R                  
JFK SPACE CTR  SUNNY     83  69  63 CALM      30.08S                  
TITUSVILLE     MOSUNNY   84  81  89 CALM      30.09S HX  98           
CAPE CANAVERAL MOSUNNY   84  57  38 E3        30.08R                  
PATRICK AFB    FAIR      84  80  87 E5        30.09R HX  98           
MELBOURNE      FAIR      85  76  74 E5        30.08R                  
VERO BEACH     FAIR      85  76  74 E7        30.08R                  
FT PIERCE      FAIR      85  75  72 E6        30.08R                  
STUART         MOSUNNY   84  75  74 SE6       30.08R                  

STATION/POSITION SKY/WX   TEMP    WIND        PRES    WAVE   SWELL
                          AIR SEA DIR/SP/G            HT/PER HT/PER
                          (F)     (DEG/KT/KT) (MB)    (FT/S) (FT/S)
28.5N   80.2W              84 83  160/  6/  6 1018.9R   2/ 7   2/ 7
28.9N   78.5W              84 86  170/  8/ 12   N/A     2/ 8   2/ 8
TRIDENT PIER               84 84   CALM  /  2 1020.2R
28.4N   80.5W                 82                N/A     2/ 8
27.5N   80.2W                 83                N/A     1/ 8

$$
FLZ050-056-061-142-242-148-248-149-249-151-251-155-255-
160-260-211400-
WEST CENTRAL FLORIDA
  
CITY           SKY/WX    TMP DP  RH WIND       PRES   REMARKS
CRYSTAL RIVER  FAIR      79  75  89 SE3       30.08S                  
INVERNESS      FAIR      79  79 100 SE3       30.09S FOG              
BROOKSVILLE    FAIR      81  76  84 E5        30.08S                  
CLEARWATER AIR FAIR      81  73  78 SE7       30.06S                  
ST PETE CLEARW FAIR      81  75  82 E6        30.06R                  
TAMPA INTL     FAIR      82  75  79 VRB3      30.08R                  
TAMPA EXEC     FAIR      79  77  94 E3        30.08R                  
PLANT CITY     FAIR     N/A N/A N/A MISG      30.10R                  
MACDILL AFB    FAIR      81  75  82 SE6       30.06S                  
PETER O KNIGHT CLOUDY    81  81 100 E3        30.07S                  
ST PETERSBURG  FAIR      81  75  82 E7        30.05R                  
SARASOTA       FAIR      81  75  82 SE8       30.04S                  
VENICE         FAIR      82  77  83 E8        30.06S                  

STATION/POSITION SKY/WX   TEMP    WIND        PRES    WAVE   SWELL
                          AIR SEA DIR/SP/G            HT/PER HT/PER
                          (F)     (DEG/KT/KT) (MB)    (FT/S) (FT/S)
27.3N   84.2W                 86                N/A     2/ 4
CLEARWATER BEACH           81 87  100/  7/ 10 1018.1R
MIDDLE TAMPA BAY           79     120/  8/  9 1018.0S
VENICE                     80 86   90/  6/  9 1017.7R

$$
FLZ066-069-070-075>078-162-262-165-265-211400-
SOUTHWEST FLORIDA AND KEYS
  
CITY           SKY/WX    TMP DP  RH WIND       PRES   REMARKS
PUNTA GORDA    FAIR      81  76  84 SE7       30.08R                  
FT MYERS       FAIR      80  75  84 E7        30.06R                  
SOUTHWEST INTL FAIR      81  74  79 E8        30.06R                  
NAPLES         MOSUNNY   32  32 100 SE7       30.05S WCI  26          
MARCO ISLAND   FAIR      82  73  74 MISG      30.06S                  
IMMOKALEE      FAIR      82  77  83 E5        30.05S                  
MARATHON       FAIR      86  73  65 SE13G22   30.04R                  
KEY WEST NAS   FAIR      87  73  62 E14       30.03R                  
KEY WEST INTL  FAIR      84  74  71 SE14      30.03S                  

STATION/POSITION SKY/WX   TEMP    WIND        PRES    WAVE   SWELL
                          AIR SEA DIR/SP/G            HT/PER HT/PER
                          (F)     (DEG/KT/KT) (MB)    (FT/S) (FT/S)
NAPLES                     80 85              1017.6R
26.0N   85.6W              85 85  100/  6/ 10 1016.9R   2/ 8   2/ 8
DRY TORTUGAS               84     130/ 11/ 12 1016.5R
SAND KEY                   84     130/ 16/ 19 1015.6
SOMBRERO KEY               81     150/ 17/ 21 1017.5
LONG KEY                   85                 1016.6

$$
FLZ067-068-071>074-168-172>174-211400-
SOUTHEAST FLORIDA 
  
CITY           SKY/WX    TMP DP  RH WIND       PRES   REMARKS
W PALM BEACH   PTSUNNY   85  76  74 SE9       30.08R                  
BOCA RATON     SUNNY     86  77  74 SE6       30.07R HX  97           
FT LAUDER-EXEC FAIR      83  76  79 CALM      30.07R                  
FT LAUDERDALE  FAIR      84  76  76 CALM      30.07R                  
POMPANO BEACH  FAIR      85  74  69 SE7       30.07R                  
PEMBROKE PINES FAIR      84  75  74 CALM      30.08R                  
OPA LOCKA      FAIR      85  75  72 E3        30.07R                  
MIAMI          FAIR      85  74  69 E5        30.07R                  
WEST KENDALL   FAIR      84  76  76 E5        30.06R                  
HOMESTEAD      PTSUNNY   82  77  83 N5        30.05R                  

STATION/POSITION SKY/WX   TEMP    WIND        PRES    WAVE   SWELL
                          AIR SEA DIR/SP/G            HT/PER HT/PER
                          (F)     (DEG/KT/KT) (MB)    (FT/S) (FT/S)
VIRGINIA KEY               83 87   20/  2/  3 1017.6R
LAKE WORTH                 83 84  130/  8/ 10 1019.4R
FOW